WZZ1DG LGSK-LOWW

Flight info

Callsign WZZ1DG
Flight time 1h 37m
Altitude 34000
Route TSL UL617 MAKED DCT LONTA UM749 UDVAR DCT NANER DCT BABIT DCT NATEX NATEX2W
Aircraft A321/M-SDE3FGHIRWY/LB1

Departure

Time 2026-04-22 19:07
Airport Skiathos Island National Airport (LGSK)

Arrival

Time 2026-04-22 20:45
Airport Vienna International Airport (LOWW)
Time Latitude Longitude Altitude Speed Heading
2026-04-22 18:44 39.17909 23.50242 40 ft 0 kts 289°
2026-04-22 18:59 39.17908 23.50243 39 ft 2 kts 289°
2026-04-22 19:00 39.17904 23.50262 39 ft 4 kts 282°
2026-04-22 19:00 39.17901 23.50307 39 ft 4 kts 257°
2026-04-22 19:00 39.17911 23.50335 35 ft 4 kts 210°
2026-04-22 19:00 39.17921 23.50341 39 ft 1 kts 199°
2026-04-22 19:03 39.17913 23.50337 38 ft 4 kts 199°
2026-04-22 19:04 39.17861 23.50314 39 ft 12 kts 199°
2026-04-22 19:04 39.17781 23.50278 39 ft 12 kts 199°
2026-04-22 19:04 39.17711 23.50293 40 ft 10 kts 111°
2026-04-22 19:04 39.17668 23.50341 41 ft 8 kts 179°
2026-04-22 19:05 39.17590 23.50314 41 ft 16 kts 199°
2026-04-22 19:05 39.17440 23.50247 38 ft 28 kts 199°
2026-04-22 19:05 39.17246 23.50161 27 ft 32 kts 199°
2026-04-22 19:05 39.17107 23.50100 19 ft 17 kts 200°
2026-04-22 19:06 39.17016 23.50085 11 ft 11 kts 226°
2026-04-22 19:06 39.17027 23.50063 11 ft 2 kts
2026-04-22 19:06 39.17028 23.50065 11 ft 0 kts 18°
2026-04-22 19:07 39.17039 23.50069 13 ft 17 kts 18°
2026-04-22 19:07 39.17409 23.50234 37 ft 95 kts 19°
2026-04-22 19:07 39.18244 23.50602 118 ft 150 kts 21°
2026-04-22 19:07 39.19197 23.51006 942 ft 143 kts 22°
2026-04-22 19:08 39.20138 23.51422 1761 ft 143 kts 21°
2026-04-22 19:08 39.21064 23.51946 2244 ft 150 kts 40°
2026-04-22 19:08 39.21646 23.53130 2395 ft 169 kts 75°
2026-04-22 19:08 39.21509 23.54697 2519 ft 192 kts 114°
2026-04-22 19:09 39.20772 23.56250 2713 ft 212 kts 120°
2026-04-22 19:09 39.19958 23.57871 3265 ft 217 kts 121°
2026-04-22 19:09 39.19143 23.59487 3929 ft 218 kts 121°
2026-04-22 19:09 39.18308 23.61141 4554 ft 221 kts 120°
2026-04-22 19:10 39.17581 23.62920 5019 ft 233 kts 101°
2026-04-22 19:10 39.17630 23.65078 5266 ft 253 kts 70°
2026-04-22 19:10 39.18619 23.67015 5608 ft 268 kts 39°
2026-04-22 19:10 39.20255 23.68217 6108 ft 276 kts 14°
2026-04-22 19:11 39.22163 23.68401 6678 ft 277 kts 347°
2026-04-22 19:11 39.23948 23.67610 7314 ft 275 kts 333°
2026-04-22 19:11 39.25710 23.66625 8047 ft 276 kts 332°
2026-04-22 19:11 39.27481 23.65637 8778 ft 277 kts 332°
2026-04-22 19:12 39.29253 23.64651 9520 ft 277 kts 331°
2026-04-22 19:12 39.31037 23.63658 10175 ft 281 kts 330°
2026-04-22 19:12 39.32896 23.62618 10379 ft 302 kts 331°
2026-04-22 19:12 39.34891 23.61500 10513 ft 323 kts 331°
2026-04-22 19:13 39.36990 23.60330 10638 ft 342 kts 332°
2026-04-22 19:13 39.39232 23.59083 10789 ft 360 kts 332°
2026-04-22 19:13 39.41567 23.57792 11201 ft 368 kts 332°
2026-04-22 19:13 39.43934 23.56491 11791 ft 370 kts 332°
2026-04-22 19:14 39.46315 23.55181 12422 ft 372 kts 332°
2026-04-22 19:14 39.48705 23.53859 13062 ft 374 kts 331°
2026-04-22 19:14 39.51102 23.52529 13705 ft 376 kts 331°
2026-04-22 19:14 39.53489 23.51201 14310 ft 378 kts 331°
2026-04-22 19:15 39.55923 23.49845 14814 ft 382 kts 331°
2026-04-22 19:15 39.58369 23.48478 15380 ft 384 kts 330°
2026-04-22 19:15 39.60834 23.47099 15974 ft 386 kts 330°
2026-04-22 19:15 39.63316 23.45713 16553 ft 388 kts 330°
2026-04-22 19:16 39.65798 23.44329 17116 ft 390 kts 330°
2026-04-22 19:16 39.68297 23.42934 17657 ft 391 kts 330°
2026-04-22 19:16 39.70810 23.41526 18200 ft 393 kts 330°
2026-04-22 19:16 39.73320 23.40118 18681 ft 394 kts 330°
2026-04-22 19:17 39.75841 23.38705 19149 ft 395 kts 330°
2026-04-22 19:17 39.78366 23.37288 19584 ft 398 kts 330°
2026-04-22 19:17 39.80894 23.35872 19970 ft 401 kts 330°
2026-04-22 19:17 39.83467 23.34429 20421 ft 402 kts 330°
2026-04-22 19:18 39.86039 23.32984 20893 ft 402 kts 330°
2026-04-22 19:18 39.88615 23.31534 21350 ft 403 kts 330°
2026-04-22 19:18 39.91201 23.30077 21806 ft 404 kts 329°
2026-04-22 19:18 39.93757 23.28639 22250 ft 405 kts 329°
2026-04-22 19:19 39.96346 23.27183 22714 ft 405 kts 329°
2026-04-22 19:19 39.98946 23.25718 23170 ft 406 kts 329°
2026-04-22 19:19 40.01544 23.24247 23581 ft 408 kts 329°
2026-04-22 19:19 40.04135 23.22775 23823 ft 412 kts 329°
2026-04-22 19:20 40.06765 23.21281 24139 ft 413 kts 329°
2026-04-22 19:20 40.09411 23.19781 24471 ft 415 kts 329°
2026-04-22 19:20 40.12063 23.18279 24819 ft 415 kts 329°
2026-04-22 19:20 40.14719 23.16774 25175 ft 416 kts 328°
2026-04-22 19:21 40.17379 23.15265 25530 ft 417 kts 328°
2026-04-22 19:21 40.20039 23.13755 25876 ft 417 kts 328°
2026-04-22 19:21 40.22715 23.12237 26233 ft 417 kts 328°
2026-04-22 19:21 40.25347 23.10745 26706 ft 416 kts 327°
2026-04-22 19:22 40.28002 23.09235 27114 ft 414 kts 327°
2026-04-22 19:22 40.30638 23.07730 27599 ft 411 kts 327°
2026-04-22 19:22 40.33251 23.06235 28108 ft 408 kts 327°
2026-04-22 19:22 40.35844 23.04752 28630 ft 404 kts 327°
2026-04-22 19:23 40.38415 23.03281 29114 ft 401 kts 326°
2026-04-22 19:23 40.40933 23.01840 29622 ft 398 kts 326°
2026-04-22 19:23 40.43453 23.00396 30128 ft 394 kts 326°
2026-04-22 19:23 40.45962 22.98948 30540 ft 390 kts 325°
2026-04-22 19:24 40.48397 22.97410 30905 ft 386 kts 323°
2026-04-22 19:24 40.50768 22.95780 31255 ft 383 kts 321°
2026-04-22 19:24 40.53103 22.94096 31596 ft 381 kts 321°
2026-04-22 19:24 40.55386 22.92428 31919 ft 380 kts 321°
2026-04-22 19:25 40.57694 22.90755 32255 ft 379 kts 321°
2026-04-22 19:25 40.60021 22.89089 32583 ft 378 kts 322°
2026-04-22 19:25 40.62339 22.87450 32907 ft 377 kts 322°
2026-04-22 19:25 40.64655 22.85822 33226 ft 376 kts 322°
2026-04-22 19:26 40.66937 22.84224 33540 ft 376 kts 322°
2026-04-22 19:26 40.69239 22.82614 33854 ft 375 kts 322°
2026-04-22 19:26 40.71548 22.80993 34048 ft 378 kts 322°
2026-04-22 19:27 40.76241 22.77674 34046 ft 385 kts 322°
2026-04-22 19:27 40.81000 22.74309 34052 ft 388 kts 322°
2026-04-22 19:28 40.85744 22.70966 34051 ft 388 kts 322°
2026-04-22 19:28 40.90524 22.67596 34052 ft 388 kts 322°
2026-04-22 19:29 40.95271 22.64236 34096 ft 390 kts 322°
2026-04-22 19:29 41.00091 22.60801 34063 ft 394 kts 322°
2026-04-22 19:30 41.04116 22.57939 34055 ft 395 kts 322°
2026-04-22 19:30 41.09764 22.53914 34057 ft 396 kts 322°
2026-04-22 19:31 41.14403 22.50102 34063 ft 386 kts 313°
2026-04-22 19:31 41.18566 22.45652 34114 ft 386 kts 314°
2026-04-22 19:32 41.22802 22.41130 34066 ft 392 kts 314°
2026-04-22 19:32 41.27066 22.36578 34059 ft 393 kts 314°
2026-04-22 19:33 41.31318 22.32031 34068 ft 394 kts 314°
2026-04-22 19:33 41.35598 22.27435 34071 ft 395 kts 314°
2026-04-22 19:34 41.39881 22.22825 34074 ft 395 kts 314°
2026-04-22 19:34 41.44162 22.18215 34103 ft 395 kts 314°
2026-04-22 19:35 41.48429 22.13617 34058 ft 397 kts 315°
2026-04-22 19:35 41.52012 22.09747 34068 ft 398 kts 315°
2026-04-22 19:36 41.57045 22.04308 34061 ft 400 kts 315°
2026-04-22 19:36 41.61376 21.99611 34061 ft 401 kts 315°
2026-04-22 19:37 41.65716 21.94897 34068 ft 402 kts 315°
2026-04-22 19:37 41.70066 21.90164 34110 ft 403 kts 315°
2026-04-22 19:38 41.74399 21.85440 34096 ft 404 kts 315°
2026-04-22 19:38 41.78762 21.80680 34092 ft 405 kts 315°
2026-04-22 19:39 41.83135 21.75903 34099 ft 405 kts 315°
2026-04-22 19:39 41.87478 21.71144 34097 ft 406 kts 316°
2026-04-22 19:40 41.91858 21.66337 34100 ft 406 kts 315°
2026-04-22 19:40 41.96224 21.61524 34114 ft 407 kts 316°
2026-04-22 19:41 42.00594 21.56701 34086 ft 408 kts 316°
2026-04-22 19:41 42.05001 21.51841 34093 ft 410 kts 316°
2026-04-22 19:42 42.09417 21.46968 34092 ft 410 kts 316°
2026-04-22 19:42 42.13845 21.42101 34092 ft 412 kts 319°
2026-04-22 19:43 42.21912 21.37531 34120 ft 429 kts 339°
2026-04-22 19:43 42.27645 21.35436 34108 ft 430 kts 339°
2026-04-22 19:44 42.33431 21.33290 34109 ft 431 kts 339°
2026-04-22 19:44 42.39188 21.31153 34114 ft 431 kts 339°
2026-04-22 19:45 42.44992 21.29005 34120 ft 433 kts 340°
2026-04-22 19:45 42.50788 21.26858 34114 ft 434 kts 339°
2026-04-22 19:46 42.56629 21.24688 34112 ft 434 kts 339°
2026-04-22 19:46 42.62433 21.22521 34137 ft 435 kts 340°
2026-04-22 19:47 42.68288 21.20340 34129 ft 436 kts 340°
2026-04-22 19:47 42.74142 21.18161 34121 ft 436 kts 340°
2026-04-22 19:48 42.79961 21.15981 34115 ft 436 kts 340°
2026-04-22 19:48 42.85811 21.13785 34131 ft 435 kts 340°
2026-04-22 19:49 42.91661 21.11582 34128 ft 435 kts 340°
2026-04-22 19:49 42.97461 21.09397 34126 ft 434 kts 340°
2026-04-22 19:50 43.03286 21.07202 34144 ft 434 kts 340°
2026-04-22 19:50 43.09104 21.04994 34137 ft 434 kts 340°
2026-04-22 19:51 43.14633 21.01881 34130 ft 428 kts 329°
2026-04-22 19:51 43.19913 20.98085 34137 ft 428 kts 329°
2026-04-22 19:52 43.25192 20.94292 34146 ft 429 kts 329°
2026-04-22 19:52 43.30456 20.90499 34149 ft 430 kts 329°
2026-04-22 19:53 43.35759 20.86670 34127 ft 431 kts 329°
2026-04-22 19:53 43.41065 20.82834 34125 ft 433 kts 329°
2026-04-22 19:54 43.46414 20.78951 34145 ft 435 kts 330°
2026-04-22 19:54 43.51781 20.75054 34134 ft 437 kts 330°
2026-04-22 19:55 43.57163 20.71141 34140 ft 438 kts 330°
2026-04-22 19:55 43.61641 20.67878 34153 ft 438 kts 330°
2026-04-22 19:56 43.67913 20.63293 34160 ft 438 kts 330°
2026-04-22 19:56 43.72415 20.59991 34178 ft 440 kts 330°
2026-04-22 19:57 43.77843 20.56012 34163 ft 440 kts 330°
2026-04-22 19:57 43.83234 20.52051 34172 ft 441 kts 330°
2026-04-22 19:58 43.88653 20.48051 34177 ft 441 kts 330°
2026-04-22 19:58 43.94070 20.44107 34188 ft 442 kts 331°
2026-04-22 20:00 44.13228 20.30417 34185 ft 443 kts 332°
2026-04-22 20:01 44.18726 20.26452 34192 ft 444 kts 332°
2026-04-22 20:01 44.24219 20.22473 34187 ft 445 kts 332°
2026-04-22 20:02 44.29713 20.18494 34188 ft 445 kts 332°
2026-04-22 20:02 44.35179 20.14526 34182 ft 445 kts 332°
2026-04-22 20:03 44.40685 20.10524 34198 ft 446 kts 332°
2026-04-22 20:03 44.46193 20.06510 34197 ft 446 kts 332°
2026-04-22 20:04 44.51664 20.02513 34193 ft 446 kts 332°
2026-04-22 20:04 44.57172 19.98475 34191 ft 446 kts 332°
2026-04-22 20:05 44.62685 19.94420 34192 ft 446 kts 333°
2026-04-22 20:05 44.68163 19.90407 34192 ft 447 kts 333°
2026-04-22 20:06 44.73669 19.86355 34200 ft 447 kts 333°
2026-04-22 20:06 44.79185 19.82277 34200 ft 447 kts 332°
2026-04-22 20:07 44.84666 19.78225 34208 ft 447 kts 333°
2026-04-22 20:07 44.90181 19.74137 34192 ft 447 kts 333°
2026-04-22 20:08 44.95707 19.70018 34195 ft 448 kts 333°
2026-04-22 20:08 45.01197 19.65931 34194 ft 448 kts 333°
2026-04-22 20:09 45.06725 19.61808 34201 ft 448 kts 333°
2026-04-22 20:09 45.12244 19.57674 34200 ft 448 kts 333°
2026-04-22 20:10 45.17725 19.53561 34189 ft 448 kts 333°
2026-04-22 20:10 45.23238 19.49424 34195 ft 448 kts 333°
2026-04-22 20:11 45.28752 19.45280 34204 ft 448 kts 333°
2026-04-22 20:11 45.34275 19.41108 34196 ft 449 kts 333°
2026-04-22 20:12 45.39757 19.36955 34199 ft 449 kts 333°
2026-04-22 20:12 45.45278 19.32764 34198 ft 449 kts 333°
2026-04-22 20:13 45.50800 19.28565 34197 ft 449 kts 333°
2026-04-22 20:13 45.56317 19.24365 34201 ft 450 kts 333°
2026-04-22 20:14 45.61814 19.20179 34199 ft 450 kts 333°
2026-04-22 20:14 45.67343 19.15954 34194 ft 450 kts 333°
2026-04-22 20:15 45.72839 19.11742 34178 ft 450 kts 333°
2026-04-22 20:15 45.78360 19.07484 34187 ft 450 kts 333°
2026-04-22 20:16 45.83892 19.03215 34186 ft 451 kts 333°
2026-04-22 20:16 45.89391 18.98981 34184 ft 451 kts 333°
2026-04-22 20:17 45.94930 18.94703 34186 ft 451 kts 333°
2026-04-22 20:17 46.00459 18.90415 34166 ft 451 kts 333°
2026-04-22 20:18 46.05992 18.86121 34182 ft 452 kts 334°
2026-04-22 20:18 46.11496 18.81827 34182 ft 452 kts 334°
2026-04-22 20:19 46.17005 18.77516 34183 ft 452 kts 334°
2026-04-22 20:19 46.22551 18.73177 34184 ft 452 kts 334°
2026-04-22 20:20 46.28094 18.68830 34165 ft 453 kts 334°
2026-04-22 20:20 46.33614 18.64497 34171 ft 453 kts 334°
2026-04-22 20:21 46.39159 18.60124 34178 ft 453 kts 334°
2026-04-22 20:21 46.44703 18.55750 34182 ft 454 kts 334°
2026-04-22 20:22 46.50249 18.51358 34179 ft 454 kts 334°
2026-04-22 20:22 46.55755 18.46983 34179 ft 454 kts 334°
2026-04-22 20:23 46.61311 18.42563 34165 ft 455 kts 335°
2026-04-22 20:23 46.66865 18.38129 34173 ft 455 kts 335°
2026-04-22 20:24 46.72403 18.33707 34179 ft 455 kts 335°
2026-04-22 20:24 46.77972 18.29246 34179 ft 456 kts 335°
2026-04-22 20:25 46.83534 18.24783 34182 ft 456 kts 335°
2026-04-22 20:25 46.89075 18.20318 34172 ft 456 kts 335°
2026-04-22 20:26 46.94642 18.15838 34189 ft 457 kts 335°
2026-04-22 20:26 47.00210 18.11327 33810 ft 457 kts 335°
2026-04-22 20:26 47.02996 18.09066 33536 ft 458 kts 336°
2026-04-22 20:27 47.05751 18.06826 33269 ft 459 kts 336°
2026-04-22 20:27 47.08552 18.04546 32447 ft 463 kts 336°
2026-04-22 20:27 47.11403 18.02235 31265 ft 473 kts 337°
2026-04-22 20:27 47.14295 17.99888 30432 ft 474 kts 338°
2026-04-22 20:28 47.17190 17.97533 29547 ft 473 kts 338°
2026-04-22 20:28 47.20064 17.95185 28736 ft 471 kts 337°
2026-04-22 20:28 47.22916 17.92845 28064 ft 466 kts 337°
2026-04-22 20:28 47.25698 17.90556 27423 ft 462 kts 337°
2026-04-22 20:29 47.28493 17.88260 26815 ft 457 kts 337°
2026-04-22 20:29 47.31263 17.85987 26223 ft 451 kts 337°
2026-04-22 20:29 47.33987 17.83753 25630 ft 446 kts 336°
2026-04-22 20:29 47.36683 17.81537 25060 ft 440 kts 336°
2026-04-22 20:30 47.39344 17.79340 24506 ft 435 kts 336°
2026-04-22 20:30 47.41963 17.77176 23834 ft 424 kts 336°
2026-04-22 20:30 47.44513 17.75067 22432 ft 415 kts 335°
2026-04-22 20:30 47.47008 17.73003 21106 ft 406 kts 335°
2026-04-22 20:31 47.49448 17.70981 19859 ft 397 kts 335°
2026-04-22 20:31 47.51810 17.69025 18805 ft 387 kts 335°
2026-04-22 20:31 47.54075 17.67143 18486 ft 359 kts 335°
2026-04-22 20:31 47.56182 17.65387 18058 ft 336 kts 335°
2026-04-22 20:32 47.58189 17.63721 17651 ft 332 kts 335°
2026-04-22 20:32 47.60219 17.62049 17235 ft 334 kts 335°
2026-04-22 20:32 47.62271 17.60360 16536 ft 342 kts 335°
2026-04-22 20:32 47.64216 17.58241 15780 ft 354 kts 317°
2026-04-22 20:33 47.65768 17.55374 15201 ft 356 kts 311°
2026-04-22 20:33 47.67259 17.52455 14707 ft 354 kts 311°
2026-04-22 20:33 47.68735 17.49536 14209 ft 351 kts 310°
2026-04-22 20:33 47.70190 17.46649 13682 ft 348 kts 310°
2026-04-22 20:34 47.71614 17.43822 13170 ft 344 kts 310°
2026-04-22 20:34 47.73057 17.40959 12284 ft 350 kts 310°
2026-04-22 20:34 47.74548 17.38015 11370 ft 358 kts 310°
2026-04-22 20:34 47.76027 17.35082 11117 ft 346 kts 309°
2026-04-22 20:35 47.77428 17.32281 10976 ft 330 kts 309°
2026-04-22 20:35 47.78755 17.29625 10849 ft 316 kts 310°
2026-04-22 20:35 47.80047 17.27045 10745 ft 304 kts 310°
2026-04-22 20:35 47.81285 17.24573 10601 ft 292 kts 310°
2026-04-22 20:36 47.82479 17.22195 10468 ft 281 kts 310°
2026-04-22 20:36 47.83626 17.19913 10196 ft 276 kts 310°
2026-04-22 20:36 47.84771 17.17629 9849 ft 274 kts 310°
2026-04-22 20:36 47.85907 17.15360 9480 ft 272 kts 310°
2026-04-22 20:37 47.87039 17.13100 9108 ft 270 kts 310°
2026-04-22 20:37 47.88144 17.10889 8753 ft 269 kts 310°
2026-04-22 20:37 47.89253 17.08665 8392 ft 267 kts 310°
2026-04-22 20:37 47.90358 17.06443 8054 ft 265 kts 310°
2026-04-22 20:38 47.91450 17.04244 7718 ft 263 kts 310°
2026-04-22 20:38 47.92539 17.02056 7382 ft 261 kts 310°
2026-04-22 20:38 47.93605 16.99915 7014 ft 257 kts 310°
2026-04-22 20:38 47.94662 16.97784 6335 ft 254 kts 310°
2026-04-22 20:39 47.95711 16.95670 5616 ft 252 kts 310°
2026-04-22 20:39 47.96749 16.93577 4917 ft 249 kts 310°
2026-04-22 20:39 47.97769 16.91517 4516 ft 242 kts 310°
2026-04-22 20:39 47.98749 16.89534 4377 ft 232 kts 310°
2026-04-22 20:40 47.99676 16.87656 4234 ft 223 kts 310°
2026-04-22 20:40 48.00586 16.85811 4065 ft 219 kts 311°
2026-04-22 20:40 48.01496 16.83971 4009 ft 219 kts 311°
2026-04-22 20:40 48.02392 16.82155 4029 ft 209 kts 311°
2026-04-22 20:41 48.03211 16.80469 3972 ft 192 kts 309°
2026-04-22 20:41 48.03874 16.78839 3749 ft 181 kts 304°
2026-04-22 20:41 48.04442 16.77225 3525 ft 171 kts 303°
2026-04-22 20:41 48.04962 16.75675 3290 ft 161 kts 303°
2026-04-22 20:42 48.05449 16.74206 3086 ft 156 kts 303°
2026-04-22 20:42 48.05946 16.72708 2877 ft 163 kts 303°
2026-04-22 20:42 48.06447 16.71184 2652 ft 163 kts 303°
2026-04-22 20:42 48.06940 16.69679 2431 ft 163 kts 303°
2026-04-22 20:43 48.07437 16.68165 2198 ft 160 kts 303°
2026-04-22 20:43 48.07914 16.66703 1994 ft 154 kts 304°
2026-04-22 20:43 48.08374 16.65295 1799 ft 145 kts 303°
2026-04-22 20:43 48.08809 16.63968 1587 ft 140 kts 302°
2026-04-22 20:44 48.09237 16.62663 1395 ft 140 kts 301°
2026-04-22 20:44 48.09659 16.61373 1205 ft 140 kts 298°
2026-04-22 20:44 48.10086 16.60069 1015 ft 139 kts 298°
2026-04-22 20:44 48.10509 16.58774 831 ft 138 kts 298°
2026-04-22 20:45 48.10932 16.57484 666 ft 138 kts 297°
2026-04-22 20:45 48.11328 16.56283 610 ft 113 kts 296°
2026-04-22 20:45 48.11557 16.55571 620 ft 47 kts 296°
2026-04-22 20:45 48.11728 16.55246 616 ft 25 kts 316°
2026-04-22 20:46 48.11882 16.55195 611 ft 12 kts 96°
2026-04-22 20:46 48.11847 16.55313 610 ft 13 kts 116°
2026-04-22 20:46 48.11865 16.55425 616 ft 12 kts 26°
2026-04-22 20:47 48.11951 16.55463 618 ft 13 kts 23°
2026-04-22 20:47 48.11993 16.55476 619 ft 4 kts 321°
2026-04-22 20:47 48.12006 16.55439 617 ft 5 kts 295°
2026-04-22 20:47 48.12014 16.55418 613 ft 0 kts 296°